Regional Weather Roundup
Issued by NWS

Home | Current Version | Previous Version | Graphics & Text | Print | Product List | Glossary Off
Versions: 1 2 3 4 5 6 7 8 9 10 11 12 13 14 15 16 17 18 19 20 21 22 23 24 25 26 27 28 29 30 31 32 33 34 35 36 37 38 39 40 41 42 43 44 45 46 47 48 49 50

000
ASUS43 KMKX 211611
RWRWI

WISCONSIN REGIONAL WEATHER ROUNDUP
NATIONAL WEATHER SERVICE MILWAUKEE/SULLIVAN WI
1100 AM CDT TUE OCT 21 2014

NOTE: "FAIR" INDICATES FEW OR NO CLOUDS BELOW 12,000 FEET WITH NO
SIGNIFICANT WEATHER AND/OR OBSTRUCTIONS TO VISIBILITY.

WIZ001-002-006>008-014>016-023>028-211700-
NORTHWEST WISCONSIN

CITY           SKY/WX    TMP DP  RH WIND       PRES   REMARKS
SUPERIOR ARPT  CLOUDY    44  36  73 E6        30.26S
ASHLAND        CLOUDY    43  35  73 E8        30.28R
HAYWARD        CLOUDY    44  34  67 SE9       30.25R
SIREN          SUNNY     48  34  59 E7        30.23S
CUMBERLAND     SUNNY     45  32  61 E5        30.23S
RICE LAKE      PTSUNNY   46  34  63 E7        30.25S
CHETEK         CLOUDY    46  36  69 E8        30.24S
LADYSMITH      CLOUDY    44  36  72 NE5       30.26S
EAU CLAIRE     PTSUNNY   46  36  68 E7        30.24R
MENOMONIE      PTSUNNY   46  37  71 E8        30.24S
NEW RICHMOND   SUNNY     47  36  65 E9        30.22F
OSCEOLA        SUNNY     48  38  68 SE10      30.24F
$$

WIZ003>005-009-010-017-018-211700-
NORTH CENTRAL WISCONSIN

CITY           SKY/WX    TMP DP  RH WIND       PRES   REMARKS
MANITOWISH WTR CLOUDY    37  35  90 E3        30.25R
ARBOR VITAE    CLOUDY    39  35  84 CALM      30.25S
WOODRUFF       CLOUDY    39  35  84 CALM      30.25S
RHINELANDER    CLOUDY    39  33  79 NE6       30.25S WCI  35
EAGLE RIVER    CLOUDY    39  34  80 NE7       30.25S WCI  34
LAND O LAKES   CLOUDY    38  34  86 N3        30.25F
PHILLIPS       CLOUDY    40  34  81 NE7       30.24R WCI  35
TOMAHAWK       CLOUDY    39  34  80 CALM      30.25S
MEDFORD        CLOUDY    43  35  74 NE8       30.24R
MERRILL        CLOUDY    41  35  77 NE8       30.25S
$$

WIZ029-030-035-036-043>047-211700-
CENTRAL WISCONSIN

CITY           SKY/WX    TMP DP  RH WIND       PRES   REMARKS
WAUSAU         CLOUDY    43  35  73 E8        30.24R
MOSINEE        CLOUDY    43  37  81 NE6       30.25R
MARSHFIELD     CLOUDY    47  37  68 E7        30.23R
STEVENS POINT  CLOUDY    42  33  71 NE8       30.25S
WAUPACA        CLOUDY    46  35  67 NE8       30.26R
WAUTOMA        CLOUDY    45  36  70 NE9       30.26R
WISC RAPIDS    CLOUDY    46  35  65 E8        30.26R
CAMP DOUGLAS   PTSUNNY   46  39  76 E5        30.24R
$$

WIZ011>013-019>022-031-037>040-048>050-211700-
NORTHEAST WISCONSIN

CITY           SKY/WX    TMP DP  RH WIND       PRES   REMARKS
ANTIGO         CLOUDY    41  34  77 N8        30.24S
SHAWANO        CLOUDY    47  37  68 NE9       30.25S
OCONTO         MOSUNNY   45  34  65 NE8       30.24R
STURGEON BAY   CLOUDY    46  36  66 N15G21    30.23R
GREEN BAY      CLOUDY    46  36  68 N14       30.24R
MANITOWOC      CLOUDY    47  36  65 N13       30.22R HAZE
APPLETON       CLOUDY    43  36  75 N13       30.24R
CLINTONVILLE   CLOUDY    45  34  65 N8        30.25R
OSHKOSH        CLOUDY    45  38  76 N13       30.23R
$$

WIZ032>034-041-042-053>061-211700-
SOUTHWEST WISCONSIN

CITY           SKY/WX    TMP DP  RH WIND       PRES   REMARKS
LA CROSSE      SUNNY     49  38  65 E7        30.24R
SPARTA         PTSUNNY   46  36  67 E8        30.25S
VIROQUA        SUNNY     48  37  65 E5        30.23R
BOSCOBEL       SUNNY     50  38  63 E5        30.24R
PRAIRIE DU CHI SUNNY     48  37  65 CALM      30.23S
PLATTEVILLE    SUNNY     49  40  72 N9        30.22S
$$

WIZ056-057-062-063-064-067-068-211700-
SOUTH CENTRAL WISCONSIN

CITY           SKY/WX    TMP DP  RH WIND       PRES   REMARKS
REEDSBURG      CLOUDY    46  36  69 NE8       30.23S
BARABOO/DELLS  CLOUDY    45  35  69 NE8       30.24R
LONE ROCK      MOSUNNY   51  37  58 NE8       30.24R
MINERAL POINT  SUNNY     50  37  62 E6        30.22R
MADISON        CLOUDY    47  37  68 NE12      30.23R
MIDDLETON      CLOUDY    48  35  62 NE13      30.23R
WATERTOWN      CLOUDY    46  38  75 N8        30.22R
MONROE         MOSUNNY   45  37  76 NE8       30.21R
JANESVILLE     PTSUNNY   52  37  58 NE10G17   30.20R
$$

WIZ051-052-058>065-066-070>072-211700-
SOUTHEAST WISCONSIN

CITY           SKY/WX    TMP DP  RH WIND       PRES   REMARKS
MILWAUKEE      CLOUDY    48  39  71 N10       30.20R
WAUKESHA       CLOUDY    46  37  71 N10       30.21R
MILWAUKEE/TIMM CLOUDY    46  37  71 N14       30.21R
RACINE         CLOUDY    48  40  73 N15G23    30.20R
BURLINGTON     CLOUDY    47  37  68 N12       30.19S
KENOSHA        CLOUDY    50  40  68 N12       30.19R
FOND DU LAC    CLOUDY    45  38  76 N12       30.24R
SHEBOYGAN      CLOUDY    47  37  68 N8        30.21R
WEST BEND      CLOUDY    45  36  70 N7        30.21R
JUNEAU         CLOUDY    45  37  76 N12       30.23S
$$

LSZ147-162-211700-
LAKE SUPERIOR

STATION/POSITION TIME  TEMP    WIND        PRES    WAVE
                       AIR SEA DIR/SP/G            HT/PER
                 (UTC) (F)     (DEG/KT/KT) (MB)    (FT/S)
W MID LAKE BUOY  1550   41 46   70/ 10/ 14 1026.2R   3/ 6
DEVILS ISLAND    1600   42      90/ 13/ 15 1026.3R
PORT WING        1540   44     110/  4/ 10 1025.4R
SAXON HARBOR     1500   43      70/  4/  7 1025.1
$$

LMZ867-665-643>646-211700-
LAKE MICHIGAN

STATION/POSITION TIME  TEMP    WIND        PRES    WAVE
                       AIR SEA DIR/SP/G            HT/PER
                 (UTC) (F)     (DEG/KT/KT) (MB)    (FT/S)
CHAMBERS ISLAND  1500   45     340/ 16/ 21 1023.4
N MID LAKE BUOY  1550   44 51   30/ 16/ 19 1023.5R   3/ 5
NORTHPORT PIER   1500   44     360/ 14/ 18 1023.4
SISTER BAY       1343           20/ 14/ 17   N/A
KEWAUNEE LAKESHO 1500   45     360/ 10/ 14 1021.8R
SHEBOYGAN LAKESH 1600   46 49  360/ 22/ 23 1023.5R
PORT WASHINGTON  1540   47     340/  5/ 11 1023.4R
ATWATER BUOY     1600   48     350/ 17/ 21 1023.2R
MILWAUKEE LAKESH 1500   47     350/ 12/ 17   N/A
S MID LAKE BUOY  1550   50 54  360/ 19/ 23 1020.8R   7/ 7
KENOSHA   LAKESH 1600   48     350/ 18/ 22 1022.0R
$$

TC  - TEMPERATURE IN CELSIUS
VSB - VISIBILITY IN STATUTE MILES
WCI - WIND CHILL INDEX
HX  - HEAT INDEX




USA.gov is the U.S. government's official web portal to all federal, state and local government web resources and services.